TimeCDT,TemperatureF,Dew PointF,Humidity,Sea Level PressureIn,VisibilityMPH,Wind Direction,Wind SpeedMPH,Gust SpeedMPH,PrecipitationIn,Events,Conditions,WindDirDegrees,DateUTC
12:10 AM,41.0,33.8,76,29.86,10.0,Calm,Calm,-,N/A,,Clear,0,2012-10-03 05:10:00
12:30 AM,42.8,35.6,76,29.86,10.0,Calm,Calm,-,N/A,,Clear,0,2012-10-03 05:30:00
12:50 AM,39.2,33.8,81,29.86,10.0,Calm,Calm,-,N/A,,Clear,0,2012-10-03 05:50:00
1:10 AM,39.2,33.8,81,29.86,10.0,Calm,Calm,-,N/A,,Clear,0,2012-10-03 06:10:00
1:30 AM,39.2,33.8,81,29.86,10.0,Calm,Calm,-,N/A,,Clear,0,2012-10-03 06:30:00
1:50 AM,39.2,33.8,81,29.86,10.0,Calm,Calm,-,N/A,,Clear,0,2012-10-03 06:50:00
2:10 AM,39.2,33.8,81,29.86,10.0,Calm,Calm,-,N/A,,Clear,0,2012-10-03 07:10:00
2:30 AM,37.4,33.8,87,29.86,10.0,Calm,Calm,-,N/A,,Clear,0,2012-10-03 07:30:00
2:50 AM,37.4,33.8,87,29.86,10.0,Calm,Calm,-,N/A,,Clear,0,2012-10-03 07:50:00
3:10 AM,37.4,33.8,87,29.86,10.0,Calm,Calm,-,N/A,,Clear,0,2012-10-03 08:10:00
3:30 AM,37.4,32.0,81,29.86,10.0,Calm,Calm,-,N/A,,Clear,0,2012-10-03 08:30:00
3:50 AM,37.4,32.0,81,29.86,10.0,Calm,Calm,-,N/A,,Clear,0,2012-10-03 08:50:00
4:10 AM,35.6,32.0,87,29.86,7.0,Calm,Calm,-,N/A,,Clear,0,2012-10-03 09:10:00
4:30 AM,37.4,32.0,81,29.86,10.0,Calm,Calm,-,N/A,,Clear,0,2012-10-03 09:30:00
4:50 AM,35.6,32.0,87,29.86,10.0,Calm,Calm,-,N/A,,Clear,0,2012-10-03 09:50:00
5:10 AM,37.4,33.8,87,29.86,10.0,Calm,Calm,-,N/A,,Clear,0,2012-10-03 10:10:00
5:30 AM,35.6,32.0,87,29.86,10.0,Calm,Calm,-,N/A,,Clear,0,2012-10-03 10:30:00
5:50 AM,35.6,32.0,87,29.87,10.0,Calm,Calm,-,N/A,,Clear,0,2012-10-03 10:50:00
6:10 AM,35.6,32.0,87,29.86,10.0,Calm,Calm,-,N/A,,Clear,0,2012-10-03 11:10:00
6:30 AM,35.6,32.0,87,29.86,10.0,Calm,Calm,-,N/A,,Clear,0,2012-10-03 11:30:00
6:50 AM,33.8,30.2,87,29.88,10.0,Calm,Calm,-,N/A,,Clear,0,2012-10-03 11:50:00
7:10 AM,35.6,32.0,87,29.88,10.0,Calm,Calm,-,N/A,,Clear,0,2012-10-03 12:10:00
7:30 AM,35.6,32.0,87,29.89,3.0,Calm,Calm,-,N/A,,Mist,0,2012-10-03 12:30:00
7:50 AM,35.6,32.0,87,29.89,4.0,Calm,Calm,-,N/A,,Clear,0,2012-10-03 12:50:00
8:10 AM,35.6,32.0,87,29.90,4.0,Calm,Calm,-,N/A,,Clear,0,2012-10-03 13:10:00
8:30 AM,41.0,35.6,81,29.90,10.0,Calm,Calm,-,N/A,,Clear,0,2012-10-03 13:30:00
8:51 AM,44.6,37.4,76,29.90,10.0,Calm,Calm,-,N/A,,Clear,0,2012-10-03 13:51:00
9:10 AM,46.4,35.6,66,29.90,10.0,Calm,Calm,-,N/A,,Clear,0,2012-10-03 14:10:00
9:30 AM,50.0,35.6,58,29.90,10.0,SSW,3.5,-,N/A,,Clear,210,2012-10-03 14:30:00
9:50 AM,53.6,33.8,47,29.90,10.0,SSW,6.9,-,N/A,,Clear,200,2012-10-03 14:50:00
10:10 AM,55.4,33.8,44,29.89,10.0,South,3.5,-,N/A,,Clear,180,2012-10-03 15:10:00
10:30 AM,59.0,32.0,36,29.89,10.0,SSW,4.6,-,N/A,,Clear,200,2012-10-03 15:30:00
10:50 AM,60.8,30.2,31,29.90,10.0,SW,4.6,-,N/A,,Clear,220,2012-10-03 15:50:00
11:10 AM,62.6,26.6,26,29.89,10.0,South,3.5,-,N/A,,Clear,190,2012-10-03 16:10:00
11:30 AM,64.4,28.4,26,29.90,10.0,SSW,4.6,-,N/A,,Clear,200,2012-10-03 16:30:00
11:50 AM,68.0,28.4,23,29.89,10.0,Calm,Calm,-,N/A,,Clear,0,2012-10-03 16:50:00
12:10 PM,69.8,23.0,17,29.89,10.0,SSE,3.5,-,N/A,,Clear,160,2012-10-03 17:10:00
12:30 PM,71.6,21.2,15,29.88,10.0,South,4.6,-,N/A,,Clear,180,2012-10-03 17:30:00
12:50 PM,71.6,19.4,14,29.86,10.0,SSE,5.8,-,N/A,,Clear,150,2012-10-03 17:50:00
1:10 PM,71.6,15.8,12,29.86,10.0,South,3.5,-,N/A,,Clear,190,2012-10-03 18:10:00
1:30 PM,73.4,15.8,11,29.85,10.0,SSE,4.6,-,N/A,,Clear,160,2012-10-03 18:30:00
1:50 PM,73.4,14.0,10,29.85,10.0,SSE,6.9,-,N/A,,Clear,160,2012-10-03 18:50:00
2:10 PM,73.4,12.2,10,29.85,10.0,South,6.9,-,N/A,,Clear,190,2012-10-03 19:10:00
2:30 PM,73.4,14.0,10,29.84,10.0,SE,6.9,-,N/A,,Clear,140,2012-10-03 19:30:00
2:50 PM,75.2,14.0,10,29.84,10.0,South,6.9,-,N/A,,Clear,190,2012-10-03 19:50:00
3:10 PM,75.2,15.8,11,29.84,10.0,South,8.1,-,N/A,,Clear,190,2012-10-03 20:10:00
3:30 PM,77.0,19.4,12,29.84,10.0,SSW,6.9,-,N/A,,Clear,200,2012-10-03 20:30:00
3:50 PM,77.0,19.4,12,29.84,10.0,South,8.1,-,N/A,,Clear,190,2012-10-03 20:50:00
4:10 PM,77.0,19.4,12,29.84,10.0,SSE,6.9,-,N/A,,Clear,150,2012-10-03 21:10:00
4:30 PM,73.4,21.2,14,29.84,10.0,Calm,Calm,-,N/A,,Clear,0,2012-10-03 21:30:00
4:50 PM,75.2,21.2,13,29.84,10.0,South,6.9,-,N/A,,Clear,180,2012-10-03 21:50:00
5:10 PM,73.4,23.0,15,29.85,10.0,SE,5.8,-,N/A,,Clear,140,2012-10-03 22:10:00
5:50 PM,69.8,26.6,20,29.85,10.0,Calm,Calm,-,N/A,,Clear,0,2012-10-03 22:50:00
6:10 PM,71.6,26.6,19,29.85,10.0,Calm,Calm,-,N/A,,Clear,0,2012-10-03 23:10:00
6:30 PM,69.8,28.4,21,29.85,10.0,Calm,Calm,-,N/A,,Clear,0,2012-10-03 23:30:00
6:50 PM,64.4,28.4,26,29.86,10.0,Calm,Calm,-,N/A,,Clear,0,2012-10-03 23:50:00
7:10 PM,62.6,26.6,26,29.86,10.0,Calm,Calm,-,N/A,,Clear,0,2012-10-04 00:10:00
7:30 PM,60.8,33.8,36,29.86,10.0,Calm,Calm,-,N/A,,Clear,0,2012-10-04 00:30:00
7:50 PM,59.0,32.0,36,29.86,10.0,Calm,Calm,-,N/A,,Clear,0,2012-10-04 00:50:00
8:10 PM,55.4,32.0,41,29.86,10.0,NE,4.6,-,N/A,,Clear,40,2012-10-04 01:10:00
8:30 PM,55.4,35.6,47,29.86,10.0,Calm,Calm,-,N/A,,Clear,0,2012-10-04 01:30:00
8:50 PM,55.4,35.6,47,29.87,10.0,Calm,Calm,-,N/A,,Clear,0,2012-10-04 01:50:00
9:10 PM,57.2,35.6,44,29.87,10.0,Calm,Calm,-,N/A,,Clear,0,2012-10-04 02:10:00
9:30 PM,55.4,35.6,47,29.87,10.0,Calm,Calm,-,N/A,,Clear,0,2012-10-04 02:30:00
9:50 PM,55.4,35.6,47,29.87,10.0,Calm,Calm,-,N/A,,Clear,0,2012-10-04 02:50:00
10:10 PM,53.6,37.4,54,29.87,10.0,Calm,Calm,-,N/A,,Scattered Clouds,0,2012-10-04 03:10:00
10:30 PM,53.6,37.4,54,29.87,10.0,Calm,Calm,-,N/A,,Clear,0,2012-10-04 03:30:00
10:50 PM,53.6,37.4,54,29.87,10.0,Calm,Calm,-,N/A,,Clear,0,2012-10-04 03:50:00
11:10 PM,51.8,37.4,58,29.87,10.0,Calm,Calm,-,N/A,,Clear,0,2012-10-04 04:10:00
11:30 PM,51.8,39.2,62,29.86,10.0,Calm,Calm,-,N/A,,Clear,0,2012-10-04 04:30:00
11:50 PM,51.8,39.2,62,29.86,10.0,Calm,Calm,-,N/A,,Clear,0,2012-10-04 04:50:00